Regional Weather Roundup
Issued by NWS

Home | Current Version | Previous Version | Graphics & Text | Print | Product List | Glossary On
Versions: 1 2 3 4 5 6 7 8 9 10 11 12 13 14 15 16 17 18 19 20 21 22 23 24 25 26 27 28 29 30 31 32 33 34 35 36 37 38 39 40 41 42 43 44 45 46 47 48 49 50
000
ASUS43 KLSX 210007
RWRMO

WEATHER SUMMARY FOR MISSOURI
NATIONAL WEATHER SERVICE SPRINGFIELD MO
600 PM CST SAT JAN 20 2018

NOTE: "FAIR" INDICATES FEW OR NO CLOUDS BELOW 12,000 FEET WITH NO
       SIGNIFICANT WEATHER AND/OR OBSTRUCTIONS TO VISIBILITY.
       CURRENT SKY AND/OR WEATHER CONDITIONS ARE NOT AVAILABLE FOR
       CHILLICOTHE AND FARMINGTON.

MOZ001>031-035>038-043-044-053-054-210100-
...NORTHERN AND WESTERN MISSOURI...

CITY           SKY/WX    TMP DP  RH WIND       PRES   REMARKS
KANSAS CTY INT MOCLDY    49  43  80 E6        29.86R
6HR MIN TEMP:  49; 6HR MAX TEMP:  52;

KANSAS C DTWN  CLOUDY    53  44  71 E5        29.85R
6HR MIN TEMP:  52; 6HR MAX TEMP:  54;

LEE`S SUMMIT   CLEAR     48  45  89 E6        29.86S
6HR MIN TEMP:  48; 6HR MAX TEMP:  53;

ST JOSEPH      CLOUDY    48  44  86 SE6       29.86R
6HR MIN TEMP:  47; 6HR MAX TEMP:  52;

CHILLICOTHE      N/A     47  42  83 SE3       29.90S
6HR MIN TEMP:  47; 6HR MAX TEMP:  54;

KIRKSVILLE     CLOUDY    45  43  93 SE8       29.92R
6HR MIN TEMP:  44; 6HR MAX TEMP:  53;


$$
MOZ066>068-077>081-088>096-101>105-210100-
...SOUTHWEST MISSOURI...

CITY           SKY/WX    TMP DP  RH WIND       PRES   REMARKS
SPRINGFIELD    CLEAR     56  44  64 S12       29.88R
6HR MIN TEMP:  56; 6HR MAX TEMP:  65;

JOPLIN         CLEAR     55  46  71 S8        29.86R
6HR MIN TEMP:  55; 6HR MAX TEMP:  65;

BRANSON        PTCLDY    54  46  76 S12G17    29.93S

$$
MOZ032>034-039>042-045>050-055>058-069>072-210100-
...CENTRAL MISSOURI...

CITY           SKY/WX    TMP DP  RH WIND       PRES   REMARKS
COLUMBIA       CLEAR     51  43  74 SE7       29.91R
6HR MIN TEMP:  48; 6HR MAX TEMP:  55;

JEFFERSON CITY CLEAR     54  42  64 E9        29.91R
6HR MIN TEMP:  51; 6HR MAX TEMP:  59;

ROLLA          CLEAR     49  42  77 SE6       29.93R
6HR MIN TEMP:  49; 6HR MAX TEMP:  59;

SEDALIA        CLEAR     51  46  83 E6        29.89R
6HR MIN TEMP:  51; 6HR MAX TEMP:  59;

WHITEMAN AFB   CLEAR     46  42  85 E6        29.83S
WARRENSBURG    CLEAR     50  43  76 CALM      29.86S
OSAGE BEACH    CLEAR     55  44  66 SE5       29.91R

$$
MOZ051-052-059>065-210100-
...EAST CENTRAL MISSOURI...

CITY           SKY/WX    TMP DP  RH WIND       PRES   REMARKS
ST LOUIS INTL  PTCLDY    47  40  76 E8        29.97R
6HR MIN TEMP:  46; 6HR MAX TEMP:  60;

SPIRIT OF STL  CLEAR     42  39  89 CALM      29.95R
6HR MIN TEMP:  42; 6HR MAX TEMP:  61;

ST CHARLES     CLEAR     42  35  76 E12       29.96R
6HR MIN TEMP:  42; 6HR MAX TEMP:  54;


$$
MOZ072>076-082>087-097>100-106>115-210100-
...SOUTH CENTRAL AND SOUTHEAST MISSOURI...

CITY           SKY/WX    TMP DP  RH WIND       PRES   REMARKS
CAPE GIRARDEAU CLOUDY    43  36  76 S8        30.06S
6HR MIN TEMP:  42; 6HR MAX TEMP:  45;

FARMINGTON     CLEAR     50  40  68 S13       29.99R
6HR MIN TEMP:  50; 6HR MAX TEMP:  60;

POPLAR BLUFF   CLOUDY    46  40  79 S6        30.06R
6HR MIN TEMP:  45; 6HR MAX TEMP:  48;

WEST PLAINS    MOCLDY    56  47  71 S13G21    29.98R
6HR MIN TEMP:  52; 6HR MAX TEMP:  60;


$$



USA.gov is the U.S. government's official web portal to all federal, state and local government web resources and services.